Howard City, MI

7:43 AM EST on December 20, 2014 (GMT -0500)
Gerald R. Ford International | Change Station
CLOSE
Current Station
Airport
Location: Grand Rapids,
Elevation: 804 ft
Nearby Weather Stations

Elev 804 ft 42.88 °N, 85.52 °W | Updated 50 minutes ago

Clear
Clear
18 °F
Feels Like 9 °F
N
7
Wind Variable Wind from SSE

Today
High -- | Low -- °F
--% Chance of Precip.
Yesterday
High -- | Low -- °F
Precip. -- in
8:10 AM 5:08 PM
Waning Crescent, 3% visible
Pressure 30.32 in
Visibility 7.0 miles
Clouds Few 3000 ft
Windchill 9 °F
Dew Point 14 °F
Humidity 84%
Rainfall 0.00 in
Snow Depth Not available.
UV 0 out of 12
Pollen .10 out of 12
Air Quality Not available.
Flu Activity Not available.
METAR KGRR 201153Z 15006KT 7SM FEW030 M08/M10 A3027 RMK AO2 SLP265 I1000 I6000 T10781100 11067 21083 58001

More Conditions Fewer Conditions

Pressure 30.32 in
Visibility 7.0 miles
Clouds Few 3000 ft
Windchill 9 °F
Dew Point 14 °F
Humidity 84%
Rainfall 0.00 in
Snow Depth Not available.
UV 0 out of 12
Pollen .10 out of 12
Air Quality Not available.
Flu Activity Not available.
METAR KGRR 201153Z 15006KT 7SM FEW030 M08/M10 A3027 RMK AO2 SLP265 I1000 I6000 T10781100 11067 21083 58001

More Conditions Fewer Conditions

10-Day Weather Forecast

Almanac

Astronomy

Dec. 20, 2014 Rise Set
Actual Time
Civil Twilight
Nautical Twilight
Astronomical Twilight
Moon
Length of Visible Light
Length of Day
Tomorrow will be .
, % of the Moon is Illuminated

Today's Extremes

State Highs State Lows

Community

WunderPhotos

Upload Photos

1,779,163 photos uploaded!

WunderBlogs® & News

Nearby

Air Quality

  Air Quality AQ Index Pollutant
Not available.

Snow Depth

Station Depth Elevation

Earthquake Activity

City Distance Mag. Time & Date
Minimum magnitude displayed is 2.5.

Coastal Water Temperatures

Place Temperature

Nearby Weather Stations